Regional Weather Roundup
Issued by NWS

Home | Current Version | Previous Version | Text Only | Print | Product List | Glossary Off
Versions: 1 2 3 4 5 6 7 8 9 10 11 12 13 14 15 16 17 18 19 20 21 22 23 24 25 26 27 28 29 30 31 32 33 34 35 36 37 38 39 40 41 42 43 44 45 46 47 48 49 50

200
ASUS43 KLSX 211110
RWRMO

WEATHER SUMMARY FOR MISSOURI
NATIONAL WEATHER SERVICE SPRINGFIELD MO
600 AM CDT FRI JUL 21 2017

NOTE: "FAIR" INDICATES FEW OR NO CLOUDS BELOW 12,000 FEET WITH NO
       SIGNIFICANT WEATHER AND/OR OBSTRUCTIONS TO VISIBILITY.
       CURRENT SKY AND/OR WEATHER CONDITIONS ARE NOT AVAILABLE FOR
       CHILLICOTHE AND FARMINGTON.

MOZ001>031-035>038-043-044-053-054-211200-
...NORTHERN AND WESTERN MISSOURI...

CITY           SKY/WX    TMP DP  RH WIND       PRES   REMARKS
KANSAS CTY INT CLEAR     78  72  81 S10       29.95R
KANSAS C DTWN  CLEAR     84  72  67 SW10      29.93R
LEE`S SUMMIT   CLEAR     80  73  79 SW12      29.96S
ST JOSEPH      CLEAR     77  75  93 S7        29.92R
CHILLICOTHE      N/A     78  75  90 CALM      29.96R
KIRKSVILLE     CLOUDY    77  74  90 S5        29.97S

$$
MOZ066>068-077>081-088>096-101>105-211200-
...SOUTHWEST MISSOURI...

CITY           SKY/WX    TMP DP  RH WIND       PRES   REMARKS
SPRINGFIELD    CLEAR     74  71  91 S5        30.04R
JOPLIN         CLEAR     78  73  84 S8        30.01R
BRANSON        CLEAR     75  72  88 S3        30.06S

$$
MOZ032>034-039>042-045>050-055>058-069>072-211200-
...CENTRAL MISSOURI...

CITY           SKY/WX    TMP DP  RH WIND       PRES   REMARKS
COLUMBIA       CLEAR     75  73  93 S5        30.00R
JEFFERSON CITY PTCLDY    75  74  96 SE5       29.99R
ROLLA          CLEAR     74  71  91 SW8       30.03R
WHITEMAN AFB   CLEAR     74  74 100 S8        29.97R
WARRENSBURG    CLEAR     73  70  88 S5        29.96S
OSAGE BEACH    CLEAR     72  70  93 CALM      30.02R

$$
MOZ051-052-059>065-211200-
...EAST CENTRAL MISSOURI...

CITY           SKY/WX    TMP DP  RH WIND       PRES   REMARKS
ST LOUIS INTL  PTCLDY    84  71  65 W7        29.99R
SPIRIT OF STL  PTCLDY    79  73  82 CALM      29.98R
ST CHARLES     PTCLDY    76  75  97 MISG      29.98R

$$
MOZ072>076-082>087-097>100-106>115-211200-
...SOUTH CENTRAL AND SOUTHEAST MISSOURI...

CITY           SKY/WX    TMP DP  RH WIND       PRES   REMARKS
CAPE GIRARDEAU CLEAR     75  73  93 S5        30.00R FOG
FARMINGTON     CLEAR     74  73  97 CALM      30.03R
POPLAR BLUFF   CLEAR     77  77 100 CALM      30.00R FOG
WEST PLAINS    CLEAR     75  72  90 W3        30.06R FOG

$$




USA.gov is the U.S. government's official web portal to all federal, state and local government web resources and services.